Orbital Elements at Epoch 2459200.5 (2020-Dec-17.0) TDB
Reference: JPL 18 (heliocentric ecliptic J2000)
Element | Value | Uncertainty (1-sigma) | Units |
e | .1669728774896445 | 5.726e-08 | |
a | 2.441980284762281 | 9.858e-09 | au |
q | 2.034235809842541 | 1.3929e-07 | au |
i | 2.168175796740607 | 5.5651e-06 | deg |
node | 40.27983111035019 | 9.8037e-05 | deg |
peri | 8.603891354439 | 0.00010021 | deg |
M | 16.97268264938001 | 1.5577e-05 | deg |
tp | 2459134.785736157076 (2020-Oct-12.28573616) | 6.0453e-05 | TDB |
period | 1393.835934610896 3.82 | 8.4401e-06 2.311e-08 | d yr |
n | .2582800393222017 | 1.564e-09 | deg/d |
Q | 2.84972475968202 | 1.1504e-08 | au |
|
| | Orbit Determination Parameters
Additional Information
|